Dewpoint
26 27 28 28 28 27 27 28 29 31 32 34 36 39 40 43 42 41 40 40 39 39 39 38 38 39 39 39 38 38 37 36 32 34 36 35 33 33 33 34 33 28 29
25 26 27 27 26 26 27 27 28 29 30 32 34 35 37 38 41 40 39 39 39 38 38 38 37 38 38 39 38 36 36 36 34 33 32 32 32 32 32 29 27 25 24
25 25 24 25 25 25 25 26 27 28 28 30 31 33 34 34 36 38 40 38 39 38 38 38 38 38 37 37 37 37 36 35 33 30 32 32 32 32 30 26 25 25 29
28 27 26 24 24 24 21 19 19 23 26 28 29 31 32 33 35 35 36 37 36 36 38 38 38 38 38 37 37 36 36 32 31 29 32 31 31 32 31 27 27 30 30
25 26 25 26 26 22 17 16 16 17 21 22 25 27 28 32 33 35 35 36 34 34 34 36 37 37 37 38 37 36 35 33 31 30 31 31 30 30 29 30 28 30 30
21 20 21 22 22 20 18 17 16 15 15 17 21 23 25 30 32 34 36 35 35 33 32 32 34 34 36 37 38 37 36 33 31 28 31 30 30 30 31 30 30 28 27
17 17 17 17 18 18 18 16 17 17 15 14 17 21 23 27 30 31 34 33 33 33 33 32 32 34 34 35 37 37 36 36 34 31 29 30 30 30 30 29 29 29 29
16 15 16 17 16 17 14 16 13 16 18 20 19 18 21 25 31 31 31 32 33 33 33 33 32 32 33 34 33 33 33 32 31 32 30 30 29 29 30 30 30 29 29
17 16 17 17 17 15 14 16 15 18 20 19 22 21 20 21 29 33 31 31 32 33 33 33 32 29 33 36 33 32 32 31 33 33 32 32 33 33 32 31 30 29 27
16 17 16 16 16 16 16 14 13 18 22 24 25 21 20 23 27 31 32 29 29 32 33 33 32 33 34 36 33 32 30 29 30 28 27 30 31 32 33 31 30 28 27
16 16 15 14 15 17 19 17 18 19 21 18 21 21 20 22 23 31 32 28 29 31 31 32 32 35 35 35 35 32 31 29 30 28 26 25 27 27 27 27 27 26 28
13 12 11 11 14 17 18 21 21 22 22 20 18 20 22 23 25 30 31 31 31 30 30 31 32 35 35 36 35 33 34 30 29 27 27 25 25 25 25 26 23 24 25
9 7 7 10 12 15 14 18 22 24 23 22 22 21 21 23 24 28 31 31 28 29 30 31 33 35 36 35 36 35 32 30 28 27 26 24 24 24 25 23 21 20 21
5 5 6 7 8 10 12 15 20 22 22 23 22 21 21 21 23 24 26 26 27 27 28 30 32 34 35 34 32 34 31 30 28 27 25 23 23 24 23 24 22 20 15
2 3 4 5 6 8 10 13 17 21 24 22 22 22 18 18 22 25 26 23 20 25 19 28 28 29 30 29 31 32 30 30 29 27 25 23 22 22 23 24 24 22 16
-1 0 1 2 3 4 5 7 12 15 18 23 27 26 24 25 25 28 29 27 28 28 13 22 16 25 29 29 30 30 29 29 29 27 25 23 22 22 22 24 25 24 20
-4 -2 -1 1 1 2 4 6 6 9 15 19 22 27 29 27 28 28 28 28 28 25 10 9 26 17 20 30 31 30 29 29 30 28 25 23 23 22 23 23 24 24 19
-6 -4 -3 -2 -1 0 1 2 4 5 6 9 17 21 25 30 28 27 28 27 13 16 10 11 16 18 20 21 31 31 30 30 29 28 26 24 23 23 23 23 24 24 18
-5 -3 -2 -1 -1 0 2 2 4 5 6 8 10 15 18 24 30 27 27 24 16 10 10 12 17 18 19 21 23 32 31 29 29 28 26 25 24 23 23 24 24 23 17
-4 -3 -3 -2 -1 -1 -1 -2 -2 0 3 5 6 9 5 7 14 19 18 10 12 14 12 16 17 19 21 21 23 31 32 30 29 29 27 26 25 24 23 23 24 22 17
-0 -1 -1 -2 -2 -2 -1 -2 -2 -2 -1 2 5 8 13 11 14 11 11 15 16 17 12 15 19 20 23 21 29 31 31 31 29 29 27 26 25 24 24 24 24 22 20
0 -1 -1 -1 -2 -2 -2 -1 -2 -2 -1 0 2 5 11 11 13 16 14 15 16 14 15 17 20 21 25 26 28 29 29 30 30 29 28 27 26 25 25 24 23 22 20
1 1 1 1 0 -1 -1 -1 -1 -1 -2 -1 -1 1 4 5 7 10 11 11 11 11 14 13 19 22 25 28 29 29 29 30 31 29 29 27 26 26 25 24 23 22 20
0 -0 -0 0 2 3 1 -1 -1 -0 -0 -2 -1 -0 2 4 6 7 10 11 5 9 13 17 19 20 22 26 29 29 30 33 32 30 30 28 27 26 26 24 23 22 21
0 -0 -1 -1 -0 0 1 3 3 1 1 1 -1 -1 0 2 4 6 8 11 12 12 14 16 18 19 20 23 28 28 31 32 32 31 31 29 28 27 26 24 24 22 20
-0 0 0 -0 -1 -1 -0 -0 -0 1 3 3 2 1 1 1 2 4 7 9 10 12 13 15 17 18 20 23 27 28 31 32 32 31 32 29 28 27 26 24 23 21 20
Lifted_Index
10 10 10 11 11 11 11 12 12 13 12 11 10 8 7 6 6 6 6 6 6 6 6 7 8 10 10 10 12 14 15 14 13 14 14 14 14 15 16 17 18 18 18
10 10 10 11 11 11 11 12 12 13 13 12 11 10 9 7 6 6 6 6 6 6 6 6 7 8 9 10 11 13 13 13 13 13 14 14 15 15 16 17 17 18 18
10 10 10 11 11 11 12 12 12 13 13 13 13 12 11 10 8 7 6 6 6 6 6 6 7 7 8 9 10 10 11 12 13 13 13 14 15 15 15 16 16 17 18
10 10 10 11 11 11 12 12 13 13 13 13 13 13 13 12 10 8 7 6 6 6 6 6 7 7 7 8 8 9 9 10 12 13 13 13 14 14 14 15 15 16 17
10 10 10 10 11 11 12 12 13 13 13 13 13 13 13 13 12 10 9 7 6 6 6 7 7 7 7 7 8 9 9 10 12 13 13 13 13 14 14 14 15 15 16
10 10 10 10 10 11 11 12 12 13 13 14 14 14 13 13 13 12 11 9 8 7 6 6 7 7 7 8 8 9 9 10 12 13 13 13 14 14 14 14 15 15 15
10 10 10 10 10 10 11 11 12 12 13 13 14 14 14 14 14 14 13 12 10 8 7 6 7 7 8 8 8 8 9 10 12 13 14 14 15 16 15 15 15 15 15
10 10 10 10 10 10 10 11 11 12 12 13 13 13 14 14 14 14 14 13 12 10 8 7 7 7 8 8 8 8 9 10 12 14 14 15 16 17 17 16 15 15 15
9 9 10 10 10 10 10 10 11 11 12 12 12 13 13 14 14 15 15 14 14 13 11 9 8 8 8 8 8 8 8 10 12 13 14 16 17 17 17 16 15 15 14
9 9 9 10 10 10 10 10 10 11 11 11 12 12 13 13 14 14 15 15 15 14 13 11 10 9 9 9 9 8 9 10 11 13 14 15 16 17 17 17 16 14 14
8 8 9 9 10 10 10 10 10 10 11 11 11 12 12 13 13 14 14 15 15 15 14 13 11 10 9 9 10 10 10 10 11 11 12 14 16 17 17 17 16 16 15
9 9 9 9 10 10 10 10 10 11 11 11 11 11 12 12 13 13 14 14 15 15 15 14 13 11 10 10 11 11 11 11 10 10 11 13 15 16 17 17 17 17 17
9 10 10 10 10 10 10 11 11 11 11 10 11 11 11 12 12 13 13 14 14 15 15 15 14 12 11 10 11 12 12 11 10 10 10 13 15 16 16 17 17 17 17
10 10 10 11 11 11 11 11 11 11 11 10 10 10 11 11 12 12 13 13 14 14 15 15 14 13 11 11 11 11 12 11 10 10 10 13 15 15 16 16 16 15 15
11 11 11 11 11 11 11 11 11 11 11 11 10 10 10 10 11 11 12 12 13 14 14 14 14 14 13 11 11 11 11 11 11 10 11 12 14 15 15 15 15 15 14
12 11 11 11 11 11 10 10 11 11 11 11 11 10 9 9 10 10 11 11 12 13 13 14 14 14 14 13 11 11 11 12 12 11 11 12 14 14 14 15 15 14 14
14 14 13 12 11 10 10 10 10 10 10 11 11 10 9 8 8 9 9 10 11 12 12 13 13 14 15 14 13 12 12 12 12 12 11 11 13 14 14 14 15 14 14
17 16 15 14 13 12 11 10 9 9 9 9 10 10 9 9 8 8 8 9 9 10 11 12 12 13 14 15 14 13 12 12 13 13 12 11 12 13 14 14 14 14 14
18 18 17 16 15 14 12 11 10 9 8 8 8 9 10 9 9 8 8 8 8 9 9 10 11 12 13 14 14 14 13 13 13 13 12 11 11 12 14 14 14 14 14
19 19 19 18 16 15 14 13 12 10 9 8 8 8 9 9 9 8 8 8 8 8 9 9 10 11 12 13 14 14 14 13 13 13 13 12 11 12 13 14 14 14 14
20 20 19 19 17 16 15 14 13 12 11 10 9 9 9 9 9 8 8 8 8 8 8 9 9 10 11 12 13 13 14 14 13 13 13 12 12 11 12 14 14 14 14
19 19 19 19 18 17 16 16 15 14 13 11 10 10 9 9 8 8 8 8 8 9 9 9 9 10 10 11 12 13 13 13 13 13 13 12 12 11 12 14 14 14 14
18 18 18 18 18 18 17 16 16 15 14 13 12 11 9 8 8 8 8 8 8 9 9 9 9 10 10 11 12 12 12 13 13 13 12 12 12 12 12 13 14 14 14
17 18 18 18 18 18 17 16 16 16 15 15 14 12 10 9 8 8 8 8 8 9 9 9 9 10 10 10 11 12 12 12 12 12 12 12 12 12 12 13 14 14 14
17 17 17 17 17 17 17 16 16 16 16 16 15 14 12 10 9 8 8 8 8 8 9 9 9 9 9 10 11 12 12 12 12 12 12 12 12 12 12 12 14 15 14
17 17 17 17 17 17 17 16 16 16 16 16 16 15 13 11 10 9 8 8 8 8 8 9 9 9 9 10 10 11 12 12 12 12 12 12 12 12 12 12 14 15 14